Tracking 31029 objects as of 15-Jul-2025
HD Live streaming from Space Station
objects crossing your sky now

CZ-4B R/B

Track CZ-4B R/B now!
10-day predictions


NORAD ID: 38039
Int'l Code: 2011-079B
Perigee: 446.7 km
Apogee: 634.3 km
Inclination: 98.5 °
Period: 95.3 minutes
Semi major axis: 6911 km
RCS: 9.5146 m2 (large)
Launch date: December 22, 2011
Source: People's Republic of China (PRC)
Launch site: Taiyaun Space Center, China (TSC)

Note: This is a ROCKET BODY
Your satellite tracking list
Your tracking list is empty




NASA's NSSDC Master Catalog

Two Line Element Set (TLE):
1 38039U 11079B   25196.38799856  .00004478  00000-0  21961-3 0  9994
2 38039  98.4536 353.3462 0135748  55.8689 305.5328 15.10933917738884
Source of the keplerian elements: AFSPC